Regional Weather Roundup
Issued by NWS

Home | Current Version | Previous Version | Graphics & Text | Print | Product List | Glossary On
Versions: 1 2 3 4 5 6 7 8 9 10 11 12 13 14 15 16 17 18 19 20 21 22 23 24 25 26 27 28 29 30 31 32 33 34 35 36 37 38 39 40 41 42 43 44 45 46 47 48 49 50
000
ASUS43 KOAX 030810
RWRNE

WEATHER ROUNDUP FOR NEBRASKA
NATIONAL WEATHER SERVICE OMAHA NE
300 AM CDT FRI JUL 03 2015

NOTES: SATELLITE DATA IS BEING USED TO AUGMENT CLOUD COVER ABOVE
       12000 FEET.
       "FAIR" INDICATES FEW OR NO CLOUDS BELOW 12,000 FEET WITH NO
       SIGNIFICANT WEATHER AND/OR OBSTRUCTIONS TO VISIBILITY.

  * THESE STATIONS DO NOT REPORT WEATHER SUCH AS RAIN...SNOW OR FOG.

NEZ001>004-019>022-054>056-030900-
NEBRASKA PANHANDLE

CITY           SKY/WX    TMP DP  RH WIND       PRES   REMARKS
SCOTTSBLUFF    MOCLDY    65  60  84 CALM      30.13S
ALLIANCE       PTCLDY    61  58  90 N7        30.12S
CHADRON        PTCLDY    61  58  90 CALM      30.10S
KIMBALL          N/A    N/A N/A N/A MISG        N/A
SIDNEY         MOCLDY    61  59  93 W5        30.15F
$$

NEZ057>060-069>072-079>082-030900-
SOUTHWEST NEBRASKA

CITY           SKY/WX    TMP DP  RH WIND       PRES   REMARKS
NORTH PLATTE   CLEAR     59  56  89 N5        30.05F
IMPERIAL       PTCLDY    62  58  86 N3        30.07F
LEXINGTON      CLEAR     60  59  96 CALM      30.03F FOG
MCCOOK         CLEAR     63  58  83 CALM      30.03F
OGALLALA       CLEAR     61  59  94 CALM      30.08F
$$

NEZ005>010-023>029-035>040-094-030900-
NORTH CENTRAL NEBRASKA

CITY           SKY/WX    TMP DP  RH WIND       PRES   REMARKS
VALENTINE      CLEAR     59  58  96 W5        30.05S
AINSWORTH      MOCLDY    62  61  99 CALM      30.05S
BROKEN BOW     CLOUDY    64  62  93 E6        30.04S FOG
O`NEILL        CLOUDY    64  63  98 SW3       30.04S FOG
ORD            CLOUDY    64  60  87 N3        30.02S
THEDFORD       CLEAR     61  59  95 CALM      30.07S FOG
$$

NEZ041-046>049-061>064-073>077-083>087-030900-
SOUTH CENTRAL NEBRASKA

CITY           SKY/WX    TMP DP  RH WIND       PRES   REMARKS
GRAND ISLAND   CLOUDY    66  64  93 NE8       30.01S FOG
AURORA         CLOUDY    65  65 100 NE8       30.00S FOG
HASTINGS       CLOUDY    66  64  93 N6        30.00S
HEBRON         CLOUDY    69  66  91 NE8       29.95S FOG
HOLDREGE       MOCLDY    62  60  94 N3        30.02S FOG
KEARNEY *      CLOUDY    63  61  94 NE5       30.02S
YORK           CLOUDY    66  64  94 NE7       29.99S FOG
$$

NEZ011>018-030>034-042>045-030900-
NORTHEAST NEBRASKA

CITY           SKY/WX    TMP DP  RH WIND       PRES   REMARKS
NORFOLK        CLOUDY    64  62  93 CALM      30.01S FOG
ALBION         CLOUDY    64  60  86 CALM      30.02S
BLAIR          PTCLDY    58  55  87 CALM      29.99S
COLUMBUS *     CLOUDY    64  57  77 NE3       30.01R
FREMONT        CLOUDY    63  58  84 NE3       30.00S
TEKAMAH        PTCLDY    59  57  93 N5        30.00S FOG
WAYNE          CLEAR     58  57  97 CALM      30.02S FOG
$$

NEZ050>053-065>068-078-088>093-030900-
SOUTHEAST NEBRASKA

CITY           SKY/WX    TMP DP  RH WIND       PRES   REMARKS
LINCOLN        CLOUDY    67  64  90 NE10      29.98S
OMAHA EPPLEY   MOCLDY    60  57  89 N6        29.99S
BEATRICE       CLOUDY    66  65  97 E7        29.96S FOG
FALLS CITY     CLOUDY    65  60  84 E6        29.95S
NEBRASKA CITY  CLOUDY    64  58  83 E6        29.97S
PLATTSMOUTH    CLOUDY    61  56  83 NE3       29.98S
$$

NEZ044-045-051>053-067-030900-
OMAHA AREA

CITY           SKY/WX    TMP DP  RH WIND       PRES   REMARKS
OMAHA EPPLEY   MOCLDY    60  57  89 N6        29.99S
BLAIR          PTCLDY    58  55  87 CALM      29.99S
FREMONT        CLOUDY    63  58  84 NE3       30.00S
MILLARD        PTCLDY    63  57  81 CALM      29.99R
OFFUTT AFB     PTCLDY    60  56  87 NE5       29.97F
PLATTSMOUTH    CLOUDY    61  56  83 NE3       29.98S
WAHOO          CLOUDY    64  61  90 NE6       29.99S
$$


USA.gov is the U.S. government's official web portal to all federal, state and local government web resources and services.